Regional Weather Roundup
Issued by NWS

Home | Current Version | Previous Version | Graphics & Text | Print | Product List | Glossary On
Versions: 1 2 3 4 5 6 7 8 9 10 11 12 13 14 15 16 17 18 19 20 21 22 23 24 25 26 27 28 29 30 31 32 33 34 35 36 37 38 39 40 41 42 43 44 45 46 47 48 49 50
000
ASUS45 KABQ 271801
RWRNM
WEATHER ROUNDUP FOR NEW MEXICO
NATIONAL WEATHER SERVICE ALBUQUERQUE NM
1100 AM MST THU NOV 27 2014

NOTE: "FAIR" MEANS FEW OR NO CLOUDS BELOW 12,000 FEET AGL WITH NO
       SIGNIFICANT WEATHER OR OBSTRUCTIONS TO VISION.

      THIS PRODUCT IS RELEASED AS TWO VERSIONS.  ONE VERSION NEAR
      THE TOP OF THE HOUR CONTAINING PRELIMINARY DATA FROM ALBUQUERQUE
      AND OTHER STATIONS.  A FINAL VERSION WITH ADDITIONAL DATA IS
      ISSUED ABOUT 10 MINUTES AFTER THE HOUR.

NMZ501-503-504-510>518-271900-
NORTHWEST PLATEAU/NORTHCENTRAL MOUNTAINS

CITY           SKY/WX    TMP DP  RH WIND       PRES   REMARKS
FARMINGTON     SUNNY     44  24  45 SE7       30.47F
6HR MIN TEMP:  24; 6HR MAX TEMP:  44;

SANTA FE       SUNNY     49  22  34 N14       30.44F
6HR MIN TEMP:  27; 6HR MAX TEMP:  49;

TAOS           SUNNY     45  23  42 N3        30.48F

$$
NMZ402-403-502-505>509-271900-
WESTCENTRAL MOUNTAINS/SOUTHWEST MOUNTAINS

CITY           SKY/WX    TMP DP  RH WIND       PRES   REMARKS
GALLUP         SUNNY     45  19  35 CALM      30.49F
6HR MIN TEMP:  13; 6HR MAX TEMP:  45;

SILVER CITY    SUNNY     59  18  20 E3        30.45F

$$
NMZ407-409-411-412-271900-
SOUTHERN DESERTS

CITY           SKY/WX    TMP DP  RH WIND       PRES   REMARKS
LORDSBURG      FAIR      61  23  23 SE13G18   30.40F
DEMING         SUNNY     63  22  20 E13       30.41F
6HR MIN TEMP:  29; 6HR MAX TEMP:  63;

HOLLOMAN AFB   SUNNY     58  23  25 CALM      30.41F
T OR C         SUNNY     57  21  24 N8        30.43F
6HR MIN TEMP:  34; 6HR MAX TEMP:  57;


$$
NMZ519>523-271900-
CENTRAL VALLEYS/CENTRAL HIGHLANDS

CITY           SKY/WX    TMP DP  RH WIND       PRES   REMARKS
ALBUQUERQUE    MOSUNNY   47  23  38 W3        30.46F
6HR MIN TEMP:  31; 6HR MAX TEMP:  47;

DOUBLE EAGLE   SUNNY     48  23  37 CALM      30.47F
MORIARTY ARPT  FAIR      50  25  37 S5        30.46F
6HR MIN TEMP:  19; 6HR MAX TEMP:  50;

CLINES CORNERS SUNNY     50  23  34 NW24      30.41F
6HR MIN TEMP:  30; 6HR MAX TEMP:  50;

BELEN          FAIR      52  22  31 CALM      30.46F
6HR MIN TEMP:  27; 6HR MAX TEMP:  52;

SOCORRO        FAIR      53  23  30 N8        30.45F
6HR MIN TEMP:  32; 6HR MAX TEMP:  53;


$$
NMZ524>526-539-540-271900-
SOUTHCENTRAL MOUNTAINS

CITY           SKY/WX    TMP DP  RH WIND       PRES   REMARKS
RUIDOSO        SUNNY     57  19  23 NE6       30.47F

$$
NMZ527>531-271900-
NORTHEAST HIGHLANDS/NORTHEAST PLAINS

CITY           SKY/WX    TMP DP  RH WIND       PRES   REMARKS
LAS VEGAS      SUNNY     60  17  18 S9        30.39F
6HR MIN TEMP:  33; 6HR MAX TEMP:  60;

RATON          MOSUNNY   51  21  30 CALM      30.34F
6HR MIN TEMP:  20; 6HR MAX TEMP:  51;

CLAYTON        MOSUNNY   63  22  20 SW17      30.27F
6HR MIN TEMP:  30; 6HR MAX TEMP:  64;


$$
NMZ532>537-271900-
EASTCENTRAL PLAINS

CITY           SKY/WX    TMP DP  RH WIND       PRES   REMARKS
TUCUMCARI      SUNNY     55  28  35 SW21      30.34F
6HR MIN TEMP:  27; 6HR MAX TEMP:  55;

CANNON AFB     SUNNY     55  28  35 SW14G24   30.38F
6HR MIN TEMP:  29; 6HR MAX TEMP:  55;

CLOVIS AIRPORT SUNNY     55  30  38 SW22      30.39F

$$
NMZ028-029-538-271900-
SOUTHEAST PLAINS

CITY           SKY/WX    TMP DP  RH WIND       PRES   REMARKS
ROSWELL        SUNNY     52  31  44 S13       30.43F
6HR MIN TEMP:  25; 6HR MAX TEMP:  52;

CARLSBAD       SUNNY     53  32  44 SE7       30.42F
6HR MIN TEMP:  32; 6HR MAX TEMP:  53;

HOBBS          SUNNY     54  32  43 SE12      30.45F


$$



USA.gov is the U.S. government's official web portal to all federal, state and local government web resources and services.